Location: Makakahi
(40.6833°S, 175.6000°E)
Time: 23:02:02
(UTC+00:00)

FENGYUN 1C DEB - Pass Details

Date: 11 December 2024
Orbit: 841 x 907 km, 98.9° (Epoch: 11 January)

Event Time Altitude Azimuth Distance (km) Brightness Sun altitude
Rises 09:30:03 0° 169° (S) 3,497 ? -16.1°
Reaches altitude 10° 09:32:29 10° 170° (S) 2,543 ? -16.4°
Maximum altitude 09:38:06 72° 253° (WSW) 910 ? -17.0°
Drops below altitude 10° 09:43:34 10° 336° (NNW) 2,475 ? -17.6°
Enters shadow 09:44:12 - 337° (NNW) 2,720 ? -17.7°
